Weather reports worldwide

Advertisment
Hawarden, United Kingdom (3321): temperature & dewpoint: 16.05.2018 16:00:00 - 22.05.2018 16:00:00 (BST)Hawarden, United Kingdom (3321): temperature -20cm & temperature -100cm: 16.05.2018 16:00:00 - 22.05.2018 16:00:00 (BST)Hawarden, United Kingdom (3321): wind speed: 16.05.2018 16:00:00 - 22.05.2018 16:00:00 (BST)Hawarden, United Kingdom (3321): wind direction: 16.05.2018 16:00:00 - 22.05.2018 16:00:00 (BST)Hawarden, United Kingdom (3321): reduced air pressure: 16.05.2018 16:00:00 - 22.05.2018 16:00:00 (BST)Hawarden, United Kingdom (3321): visibility: 16.05.2018 16:00:00 - 22.05.2018 16:00:00 (BST)Hawarden, United Kingdom (3321): sunshine duration: 16.05.2018 16:00:00 - 22.05.2018 16:00:00 (BST)Hawarden, United Kingdom (3321): precipitation: 16.05.2018 16:00:00 - 22.05.2018 16:00:00 (BST)
Date & Time tt [°C] td [°C] tt -20cm [°C] tt -100cm [°C] ff [km/h] ff [kn] dd ppp [hPa] vv [km] sd [min] rr [mm]
22.05.2018 16:00:00 20,4 9,7 - - 16 9 NW 1020,3 10 48 0,0
22.05.2018 15:00:00 20,8 7,4 - - 11 6 NE 1020,2 10 54 0,0
22.05.2018 14:00:00 20,0 8,5 - - 15 8 NE 1020,2 10 60 0,0
22.05.2018 13:00:00 19,1 9,4 - - 11 6 NE 1020,3 10 60 0,0
22.05.2018 12:00:00 17,7 8,9 - - 13 7 NE 1020,2 10 60 0,0
22.05.2018 11:00:00 16,5 9,4 - - 13 7 NE 1020,4 10 54 0,0
22.05.2018 10:00:00 14,6 10,3 14,7 12,0 13 7 NW 1020,8 10 48 0,0
22.05.2018 09:00:00 13,1 9,3 - - 15 8 NNW 1020,5 10 36 0,0
22.05.2018 08:00:00 11,5 9,1 - - 21 11 NW 1020,2 10 36 0,0
22.05.2018 07:00:00 11,6 9,2 - - 21 11 NW 1019,4 10 18 0,0
22.05.2018 06:00:00 10,9 8,8 - - 8 4 NW 1019,0 21 0 0,0
22.05.2018 05:00:00 11,3 9,0 - - 13 7 NW 1018,8 20 0 0,0
22.05.2018 04:00:00 11,2 8,8 - - 13 7 NW 1018,6 21 0 0,0
22.05.2018 03:00:00 11,5 8,7 - - 13 7 NW 1018,7 22 0 0,0
22.05.2018 02:00:00 11,5 8,4 - - 22 12 NW 1018,7 24 0 0,0
22.05.2018 01:00:00 12,4 8,5 - - 13 7 NW 1018,5 27 - 0,0
22.05.2018 00:00:00 13,2 8,7 - - 16 9 NW 1018,6 35 0 0,0
21.05.2018 23:00:00 12,7 9,0 - - 15 8 NW 1018,9 25 0 0,0
21.05.2018 22:00:00 12,6 9,3 - - 13 7 NW 1019,2 23 0 0,0
21.05.2018 21:00:00 13,1 9,3 - - 28 15 NW 1018,6 10 0 0,0
21.05.2018 20:00:00 14,2 9,5 - - 24 13 NW 1018,2 10 54 0,0
21.05.2018 19:00:00 15,4 6,1 - - 34 18 NW 1017,9 10 60 0,0
21.05.2018 18:00:00 16,8 5,5 - - 28 15 NW 1017,6 10 60 0,0
21.05.2018 17:00:00 17,6 4,7 - - 26 14 NW 1017,3 10 60 0,0
21.05.2018 16:00:00 18,2 8,5 - - 24 13 NW 1017,4 10 60 0,0
21.05.2018 15:00:00 19,2 9,0 - - 22 12 NW 1017,4 10 60 0,0
21.05.2018 14:00:00 21,8 6,1 - - 5 3 - 1017,4 10 54 0,0
21.05.2018 13:00:00 20,3 5,2 - - 5 3 - 1017,5 10 48 0,0
21.05.2018 12:00:00 20,0 9,0 - - 5 3 - 1017,9 10 48 0,0
21.05.2018 11:00:00 18,3 9,4 - - 5 3 - 1018,3 10 54 0,0
21.05.2018 10:00:00 17,4 10,3 14,2 11,9 9 5 SE 1018,4 10 60 0,0
21.05.2018 09:00:00 15,5 10,4 - - 11 6 SE 1018,5 10 60 0,0
21.05.2018 08:00:00 13,1 9,6 - - 9 5 SE 1018,6 10 60 0,0
21.05.2018 07:00:00 8,6 7,1 - - 5 3 SSE 1018,6 10 42 0,0
21.05.2018 06:00:00 7,0 5,8 - - 5 3 S 1018,5 18 0 0,0
21.05.2018 05:00:00 6,3 4,8 - - 4 2 SE 1018,3 17 0 0,0
21.05.2018 04:00:00 7,0 5,7 - - 4 2 S 1018,6 28 0 0,0
21.05.2018 03:00:00 7,1 5,6 - - 4 2 S 1018,8 27 0 0,0
21.05.2018 02:00:00 8,2 6,7 - - 2 1 W 1019,2 29 0 0,0
21.05.2018 01:00:00 9,5 6,9 - - 2 1 NW 1019,5 22 - 0,0
21.05.2018 00:00:00 11,8 7,8 - - 2 1 NW 1019,7 22 0 0,0
20.05.2018 23:00:00 13,2 8,4 - - 5 3 WNW 1019,7 30 0 0,0
20.05.2018 22:00:00 14,0 8,9 - - 8 4 NW 1019,7 29 0 0,0
20.05.2018 21:00:00 15,1 9,0 - - 11 6 NW 1019,3 27 0 0,0
20.05.2018 20:00:00 16,3 8,3 - - 11 6 NW 1019,1 35 0 0,0
20.05.2018 19:00:00 17,8 7,2 - - 16 9 NW 1019,0 10 0 0,0
20.05.2018 18:00:00 19,0 5,7 - - 16 9 NW 1019,1 10 24 0,0
20.05.2018 17:00:00 19,5 6,0 - - 16 9 NW 1019,3 10 60 0,0
20.05.2018 16:00:00 21,6 7,3 - - 15 8 S 1019,6 10 60 0,0
20.05.2018 15:00:00 21,8 8,6 - - 16 9 S 1020,2 10 60 0,0
20.05.2018 14:00:00 22,4 10,2 - - 16 9 S 1020,5 10 60 0,0
20.05.2018 13:00:00 20,5 9,5 - - 22 12 SSE 1020,9 10 24 0,0
20.05.2018 12:00:00 20,2 9,9 - - 21 11 SSE 1021,3 10 60 0,0
20.05.2018 11:00:00 18,4 9,0 - - 21 11 SSE 1021,5 10 60 0,0
20.05.2018 10:00:00 17,2 8,5 14,0 11,7 15 8 SSE 1021,9 10 60 0,0
20.05.2018 09:00:00 15,8 9,0 - - 11 6 SSE 1022,0 10 60 0,0
20.05.2018 08:00:00 12,4 8,8 - - 5 3 S 1022,1 40 60 0,0
20.05.2018 07:00:00 8,9 7,2 - - 5 3 SSE 1022,0 19 36 0,0
20.05.2018 06:00:00 6,9 6,0 - - 8 4 SSE 1021,9 12 0 0,0
20.05.2018 05:00:00 6,6 5,7 - - 9 5 SSE 1021,7 10 0 0,0
20.05.2018 04:00:00 7,0 5,7 - - 5 3 SSE 1021,9 13 0 0,0
20.05.2018 03:00:00 7,7 6,0 - - 2 1 S 1022,0 22 0 0,0
20.05.2018 02:00:00 8,8 6,7 - - 4 2 WSW 1022,1 22 0 0,0
20.05.2018 01:00:00 8,1 6,3 - - 8 4 SW 1022,2 28 - 0,0
20.05.2018 00:00:00 8,8 6,3 - - 2 1 WNW 1022,2 26 0 0,0
19.05.2018 23:00:00 10,2 6,4 - - 2 1 W 1022,2 22 0 0,0
19.05.2018 22:00:00 13,8 7,0 - - 5 3 NW 1022,3 20 0 0,0
19.05.2018 21:00:00 15,3 6,5 - - 11 6 NW 1021,8 35 18 0,0
19.05.2018 20:00:00 17,0 6,1 - - 13 7 NW 1021,6 28 54 0,0
19.05.2018 19:00:00 17,2 5,7 - - 18 10 NW 1021,6 10 42 0,0
19.05.2018 18:00:00 18,4 5,7 - - 21 11 NW 1021,6 10 54 0,0
19.05.2018 17:00:00 21,4 8,9 - - 15 8 SSE 1021,6 10 60 0,0
19.05.2018 16:00:00 21,3 9,5 - - 15 8 SSE 1021,8 10 60 0,0
19.05.2018 15:00:00 20,5 8,0 - - 13 7 SE 1022,3 10 60 0,0
19.05.2018 14:00:00 20,6 8,8 - - 8 4 - 1022,7 10 48 0,0
19.05.2018 13:00:00 19,5 8,0 - - 11 6 SE 1023,3 10 42 0,0
19.05.2018 12:00:00 18,9 7,5 - - 8 4 SE 1023,7 10 60 0,0
19.05.2018 11:00:00 17,7 8,0 - - 8 4 SSE 1024,1 10 60 0,0
19.05.2018 10:00:00 15,8 7,6 13,7 11,7 5 3 - 1024,4 10 60 0,0
19.05.2018 09:00:00 13,7 9,0 - - 5 3 - 1024,7 10 60 0,0
19.05.2018 08:00:00 11,2 7,5 - - 2 1 SE 1024,7 24 60 0,0
19.05.2018 07:00:00 7,3 6,0 - - 4 2 S 1024,3 18 48 0,0
19.05.2018 06:00:00 4,5 3,7 - - 2 1 SE 1024,3 12 0 0,0
19.05.2018 05:00:00 4,7 3,9 - - 2 1 WNW 1024,2 17 0 0,0
19.05.2018 04:00:00 5,1 3,7 - - 5 3 S 1024,2 21 0 0,0
19.05.2018 03:00:00 5,5 4,0 - - 5 3 SW 1024,5 15 0 0,0
19.05.2018 02:00:00 7,8 4,6 - - 4 2 S 1024,7 21 0 0,0
19.05.2018 01:00:00 11,2 6,8 - - 8 4 WNW 1024,9 23 - 0,0
19.05.2018 00:00:00 11,3 7,0 - - 5 3 WNW 1025,0 15 0 0,0
18.05.2018 23:00:00 12,0 7,7 - - 8 4 NW 1025,1 21 0 0,0
18.05.2018 22:00:00 12,8 6,8 - - 9 5 NNW 1025,0 26 0 0,0
18.05.2018 21:00:00 14,4 5,2 - - 13 7 NW 1024,7 10 0 0,0
18.05.2018 20:00:00 15,0 5,3 - - 15 8 NW 1024,5 10 24 0,0
18.05.2018 19:00:00 16,3 6,1 - - 15 8 NNW 1024,4 10 54 0,0
18.05.2018 18:00:00 16,3 4,9 - - 18 10 NW 1024,5 10 60 0,0
18.05.2018 17:00:00 16,8 4,9 - - 16 9 NW 1024,7 10 60 0,0
18.05.2018 16:00:00 17,5 4,5 - - 15 8 NW 1024,8 10 60 0,0
18.05.2018 15:00:00 17,5 4,8 - - 9 5 NNW 1024,9 10 18 0,0
18.05.2018 14:00:00 17,2 7,2 - - 8 4 - 1025,1 10 6 0,0
18.05.2018 13:00:00 16,9 5,7 - - 11 6 N 1025,3 10 24 0,0
18.05.2018 12:00:00 15,8 5,0 - - 4 2 - 1025,7 10 60 0,0
18.05.2018 11:00:00 14,9 7,6 - - 5 3 - 1025,9 10 54 0,0
18.05.2018 10:00:00 13,0 8,2 13,2 11,7 8 4 ESE 1026,2 10 54 0,0
18.05.2018 09:00:00 11,0 7,4 - - 11 6 SSE 1026,2 10 60 0,0
18.05.2018 08:00:00 8,5 6,4 - - 11 6 SSE 1026,4 10 60 0,0
18.05.2018 07:00:00 6,2 5,2 - - 9 5 SE 1026,4 10 54 0,0
18.05.2018 06:00:00 4,3 3,4 - - 8 4 SE 1026,4 11 0 0,0
18.05.2018 05:00:00 4,6 3,6 - - 9 5 S 1026,4 15 0 0,0
18.05.2018 04:00:00 4,9 3,7 - - 9 5 S 1026,7 15 0 0,0
18.05.2018 03:00:00 5,6 4,1 - - 8 4 SSE 1026,9 19 0 0,0
18.05.2018 02:00:00 6,1 4,8 - - 9 5 S 1027,3 19 0 0,0
18.05.2018 01:00:00 5,7 4,7 - - 4 2 S 1027,5 18 - 0,0
18.05.2018 00:00:00 6,4 5,1 - - 4 2 SW 1027,5 22 0 0,0
17.05.2018 23:00:00 8,4 6,5 - - 4 2 WSW 1027,6 30 0 0,0
17.05.2018 22:00:00 10,7 7,2 - - 4 2 NW 1027,4 25 0 0,0
17.05.2018 21:00:00 12,4 8,0 - - 13 7 NW 1027,0 10 36 0,0
17.05.2018 20:00:00 13,7 5,8 - - 11 6 NW 1027,0 10 60 0,0
17.05.2018 19:00:00 14,4 6,3 - - 18 10 NW 1027,2 10 60 0,0
17.05.2018 18:00:00 15,6 5,3 - - 15 8 NW 1027,2 10 60 0,0
17.05.2018 17:00:00 15,7 5,1 - - 11 6 NNW 1027,6 35 42 0,0
17.05.2018 16:00:00 14,4 5,6 - - 16 9 NW 1027,9 10 12 0,0
17.05.2018 15:00:00 15,6 3,3 - - 5 3 - 1028,3 10 60 0,0
17.05.2018 14:00:00 15,1 3,6 - - 9 5 SSE 1028,8 10 60 0,0
17.05.2018 13:00:00 14,7 4,3 - - 5 3 - 1029,3 10 60 0,0
17.05.2018 12:00:00 13,5 2,4 - - 5 3 - 1029,7 10 60 0,0
17.05.2018 11:00:00 11,9 2,3 - - 4 2 - 1030,1 10 60 0,0
17.05.2018 10:00:00 10,7 3,3 13,0 11,5 4 2 - 1030,3 10 60 0,0
17.05.2018 09:00:00 9,7 3,9 - - 4 2 - 1030,4 10 60 0,0
17.05.2018 08:00:00 8,3 4,9 - - 2 1 - 1030,7 10 60 0,0
17.05.2018 07:00:00 6,0 5,4 - - 2 1 - 1030,5 10 60 0,0
17.05.2018 06:00:00 1,4 0,8 - - 0 0 N 1030,5 10 0 0,0
17.05.2018 05:00:00 1,7 0,9 - - 2 1 NW 1030,4 13 0 0,0
17.05.2018 04:00:00 2,0 0,7 - - 2 1 NNW 1030,6 15 0 0,0
17.05.2018 03:00:00 2,6 0,9 - - 4 2 WNW 1030,7 9 0 0,0
17.05.2018 02:00:00 5,0 3,2 - - 4 2 NNW 1030,9 21 0 0,0
17.05.2018 01:00:00 6,2 3,6 - - 4 2 NNW 1031,2 17 - 0,0
17.05.2018 00:00:00 6,1 2,5 - - 4 2 WNW 1031,3 22 0 0,0
16.05.2018 23:00:00 7,6 2,7 - - 4 2 NW 1031,0 26 0 0,0
16.05.2018 22:00:00 9,4 3,6 - - 13 7 NE 1030,5 28 0 0,0
16.05.2018 21:00:00 10,8 4,0 - - 13 7 ENE 1029,9 10 0 0,0
16.05.2018 20:00:00 13,3 5,1 - - 22 12 ENE 1029,7 10 0 0,0
16.05.2018 19:00:00 14,2 5,9 - - 13 7 NE 1029,5 10 0 0,0
16.05.2018 18:00:00 14,9 6,4 - - 13 7 NE 1029,2 10 12 0,0
16.05.2018 17:00:00 15,3 5,2 - - 15 8 NNE 1029,4 10 42 0,0
16.05.2018 16:00:00 14,8 6,3 - - 11 6 NE 1029,5 10 36 0,0

tt = temperature
td = dewpoint
tt -20cm = temperature -20cm
tt -100cm = temperature -100cm
ff = wind speed
dd = wind direction
ppp = reduced air pressure
vv = visibility
sd = sunshine duration
rr = precipitation

Next stations